{"data":{"norad_id":64391,"intl_designator":"2025-127X","name":"STARLINK-34278","alt_names":[],"object_type":"PAYLOAD","status":"ACTIVE","operator":null,"country":"US","launch_date":"2025-06-13","launch_site_code":"AFETR","launch_vehicle":null,"mission":null,"orbit_class":"UNKNOWN","rcs_meters":null,"size_class":null,"mass_kg":null,"dimensions":null,"purposes":["comms"],"wikipedia_slug":null,"has_3d_model":false,"image_url":null,"decayed_at":null,"tle_current":{"epoch":"2026-09-20T10:20:40.644672Z","epoch_age_seconds":140406,"freshness":"FRESH","line1":"1 64391U 25127X   26263.43102598  .00017358  00000+0  63846-3 0  9994","line2":"2 64391  43.0024 159.6893 0001986 269.2727  90.7897 15.27597500 72255","mean_motion":15.275975,"eccentricity":0.0001986,"inclination_deg":43.0024,"raan_deg":159.6893,"arg_perigee_deg":269.2727,"mean_anomaly_deg":90.7897,"bstar":0.00063846,"rev_number":7225,"period_min":94.265668803464,"perigee_km":481.63407409244,"apogee_km":484.35931639619,"semimajor_km":6861.1336952443,"source":"CELESTRAK","updated_at":"2026-09-21T09:00:35.345000Z"}}}